• In Uzbekistan
  • List of Countries
  • For 7 days
  • Water Temperature
  • Satellite Maps
  • Weather Map
  • Weather Widgets
  • user-avatar
    Login

    Hourly Weather Kos

    Today, 21 November, Tuesday

    Time Temperature Precipitation Wind Pressure Humidity
    00:00 +6°C° 0 mm 14 mps 762 mmHg 80%
    01:00 +7°C° 0 mm 13 mps 762 mmHg 80%
    02:00 +5°C° 0 mm 13 mps 762 mmHg 78%
    03:00 +5°C° 0 mm 13 mps 763 mmHg 78%
    04:00 +4°C° 0 mm 12 mps 763 mmHg 78%
    05:00 +4°C° 0 mm 11 mps 764 mmHg 78%
    06:00 +4°C° 0 mm 11 mps 764 mmHg 77%
    07:00 +5°C° 0 mm 10 mps 765 mmHg 75%
    08:00 +5°C° 0 mm 9 mps 765 mmHg 73%
    09:00 +7°C° 0 mm 9 mps 765 mmHg 66%
    10:00 +8°C° 0 mm 9 mps 765 mmHg 58%
    11:00 +10°C° 0 mm 9 mps 766 mmHg 50%
    12:00 +10°C° 0 mm 9 mps 766 mmHg 46%
    13:00 +11°C° 0 mm 9 mps 766 mmHg 42%
    14:00 +11°C° 0 mm 9 mps 766 mmHg 39%
    15:00 +10°C° 0 mm 9 mps 766 mmHg 41%
    16:00 +9°C° 0 mm 8 mps 766 mmHg 44%
    17:00 +7°C° 0 mm 8 mps 766 mmHg 47%
    18:00 +7°C° 0 mm 8 mps 766 mmHg 48%
    19:00 +6°C° 0 mm 8 mps 767 mmHg 50%
    20:00 +6°C° 0 mm 8 mps 767 mmHg 52%
    21:00 +5°C° 0 mm 8 mps 767 mmHg 54%
    22:00 +5°C° 0 mm 8 mps 767 mmHg 56%
    23:00 +5°C° 0 mm 7 mps 767 mmHg 58%

    Tomorrow, 22 November, Wednesday

    Time Temperature Precipitation Wind Pressure Humidity
    00:00 +4°C° 0 mm 7 mps 767 mmHg 59%
    01:00 +4°C° 0 mm 7 mps 767 mmHg 61%
    02:00 +4°C° 0 mm 7 mps 767 mmHg 62%
    03:00 +4°C° 0 mm 7 mps 767 mmHg 62%
    04:00 +3°C° 0 mm 7 mps 767 mmHg 62%
    05:00 +3°C° 0 mm 7 mps 767 mmHg 62%
    06:00 +3°C° 0 mm 7 mps 767 mmHg 60%
    07:00 +4°C° 0 mm 7 mps 767 mmHg 58%
    08:00 +4°C° 0 mm 7 mps 767 mmHg 56%
    09:00 +7°C° 0 mm 6 mps 767 mmHg 48%
    10:00 +9°C° 0 mm 6 mps 768 mmHg 40%
    11:00 +11°C° 0 mm 6 mps 768 mmHg 33%
    12:00 +13°C° 0 mm 6 mps 768 mmHg 31%
    13:00 +14°C° 0 mm 6 mps 767 mmHg 30%
    14:00 +15°C° 0 mm 6 mps 767 mmHg 29%
    15:00 +14°C° 0 mm 5 mps 767 mmHg 32%
    16:00 +12°C° 0 mm 5 mps 767 mmHg 36%
    17:00 +10°C° 0 mm 5 mps 767 mmHg 40%
    18:00 +10°C° 0 mm 5 mps 767 mmHg 41%
    19:00 +9°C° 0 mm 5 mps 767 mmHg 43%
    20:00 +10°C° 0 mm 4 mps 767 mmHg 45%
    21:00 +10°C° 0 mm 4 mps 767 mmHg 46%
    22:00 +8°C° 0 mm 4 mps 768 mmHg 47%
    23:00 +8°C° 0 mm 4 mps 768 mmHg 48%

    Day after tomorrow, 23 November, Thursday

    Time Temperature Precipitation Wind Pressure Humidity
    00:00 +9°C° 0 mm 3 mps 767 mmHg 48%
    01:00 +9°C° 0 mm 3 mps 767 mmHg 49%
    02:00 +8°C° 0 mm 3 mps 767 mmHg 49%
    03:00 +8°C° 0 mm 3 mps 767 mmHg 49%
    04:00 +8°C° 0 mm 3 mps 767 mmHg 49%
    05:00 +8°C° 0 mm 3 mps 767 mmHg 50%
    06:00 +8°C° 0 mm 3 mps 767 mmHg 50%
    07:00 +9°C° 0 mm 3 mps 767 mmHg 50%
    08:00 +9°C° 0 mm 3 mps 767 mmHg 50%
    09:00 +11°C° 0 mm 3 mps 768 mmHg 45%
    10:00 +14°C° 0 mm 3 mps 768 mmHg 40%
    11:00 +17°C° 0 mm 3 mps 768 mmHg 35%
    12:00 +18°C° 0 mm 3 mps 767 mmHg 35%
    13:00 +18°C° 0 mm 3 mps 767 mmHg 34%
    14:00 +19°C° 0 mm 4 mps 767 mmHg 33%
    15:00 +18°C° 0 mm 4 mps 767 mmHg 38%
    16:00 +15°C° 0 mm 4 mps 767 mmHg 43%
    17:00 +14°C° 0 mm 4 mps 767 mmHg 48%
    18:00 +13°C° 0 mm 4 mps 767 mmHg 50%
    19:00 +13°C° 0 mm 5 mps 767 mmHg 52%
    20:00 +12°C° 0 mm 5 mps 767 mmHg 54%
    21:00 +12°C° 0 mm 5 mps 768 mmHg 54%
    22:00 +10°C° 0 mm 5 mps 768 mmHg 55%
    23:00 +10°C° 0 mm 5 mps 768 mmHg 56%

    24 November, Friday

    Time Temperature Precipitation Wind Pressure Humidity
    00:00 +10°C° 0 mm 5 mps 768 mmHg 56%
    01:00 +10°C° 0 mm 5 mps 768 mmHg 55%
    02:00 +9°C° 0 mm 5 mps 768 mmHg 55%
    03:00 +9°C° 0 mm 5 mps 767 mmHg 55%
    04:00 +9°C° 0 mm 5 mps 767 mmHg 55%
    05:00 +9°C° 0 mm 5 mps 767 mmHg 55%
    06:00 +9°C° 0 mm 5 mps 767 mmHg 55%
    07:00 +9°C° 0 mm 5 mps 767 mmHg 55%
    08:00 +9°C° 0 mm 5 mps 768 mmHg 55%
    09:00 +13°C° 0 mm 4 mps 768 mmHg 49%
    10:00 +15°C° 0 mm 4 mps 768 mmHg 43%
    11:00 +18°C° 0 mm 4 mps 768 mmHg 37%
    12:00 +19°C° 0 mm 5 mps 767 mmHg 35%
    13:00 +20°C° 0 mm 5 mps 767 mmHg 33%
    14:00 +21°C° 0 mm 5 mps 767 mmHg 31%
    15:00 +19°C° 0 mm 5 mps 767 mmHg 35%
    16:00 +17°C° 0 mm 5 mps 767 mmHg 40%
    17:00 +15°C° 0 mm 5 mps 767 mmHg 44%
    18:00 +14°C° 0 mm 5 mps 767 mmHg 46%
    19:00 +14°C° 0 mm 5 mps 767 mmHg 48%
    20:00 +13°C° 0 mm 5 mps 767 mmHg 49%
    21:00 +12°C° 0 mm 5 mps 768 mmHg 50%
    22:00 +12°C° 0 mm 5 mps 768 mmHg 51%
    23:00 +11°C° 0 mm 4 mps 768 mmHg 52%

    25 November, Saturday

    Time Temperature Precipitation Wind Pressure Humidity
    00:00 +11°C° 0 mm 4 mps 768 mmHg 53%
    01:00 +11°C° 0 mm 4 mps 768 mmHg 54%
    02:00 +11°C° 0 mm 4 mps 768 mmHg 55%
    03:00 +10°C° 0 mm 4 mps 768 mmHg 55%
    04:00 +10°C° 0 mm 4 mps 768 mmHg 56%
    05:00 +10°C° 0 mm 4 mps 767 mmHg 56%
    06:00 +10°C° 0 mm 4 mps 768 mmHg 56%
    07:00 +10°C° 0 mm 3 mps 768 mmHg 56%
    08:00 +10°C° 0 mm 3 mps 768 mmHg 55%
    09:00 +13°C° 0 mm 3 mps 768 mmHg 49%
    10:00 +16°C° 0 mm 3 mps 769 mmHg 43%
    11:00 +18°C° 0 mm 2 mps 769 mmHg 37%
    12:00 +19°C° 0 mm 2 mps 769 mmHg 35%
    13:00 +20°C° 0 mm 2 mps 768 mmHg 34%
    14:00 +21°C° 0 mm 2 mps 768 mmHg 32%
    15:00 +19°C° 0 mm 2 mps 768 mmHg 37%
    16:00 +17°C° 0 mm 2 mps 768 mmHg 42%
    17:00 +15°C° 0 mm 2 mps 768 mmHg 47%
    18:00 +15°C° 0 mm 2 mps 769 mmHg 49%
    19:00 +14°C° 0 mm 2 mps 769 mmHg 51%
    20:00 +14°C° 0 mm 2 mps 769 mmHg 53%
    21:00 +14°C° 0 mm 2 mps 769 mmHg 54%
    22:00 +13°C° 0 mm 3 mps 770 mmHg 55%
    23:00 +12°C° 0 mm 3 mps 770 mmHg 56%

    26 November, Sunday

    Time Temperature Precipitation Wind Pressure Humidity
    00:00 +12°C° 0.1 mm 3 mps 770 mmHg 57%
    01:00 +13°C° 0.1 mm 2 mps 770 mmHg 58%
    02:00 +12°C° 0.1 mm 2 mps 770 mmHg 58%
    03:00 +11°C° 0.1 mm 3 mps 770 mmHg 59%
    04:00 +11°C° 0.1 mm 3 mps 770 mmHg 60%
    05:00 +11°C° 0.1 mm 3 mps 770 mmHg 60%
    06:00 +11°C° 0 mm 3 mps 770 mmHg 60%
    07:00 +11°C° 0 mm 3 mps 770 mmHg 60%
    08:00 +11°C° 0 mm 3 mps 770 mmHg 60%
    09:00 +13°C° 0 mm 3 mps 770 mmHg 54%
    10:00 +17°C° 0 mm 3 mps 770 mmHg 47%
    11:00 +19°C° 0 mm 2 mps 770 mmHg 41%
    12:00 +19°C° 0 mm 3 mps 770 mmHg 40%
    13:00 +20°C° 0 mm 3 mps 770 mmHg 39%
    14:00 +20°C° 0 mm 3 mps 769 mmHg 38%
    15:00 +18°C° 0 mm 3 mps 769 mmHg 43%
    16:00 +17°C° 0 mm 3 mps 769 mmHg 48%
    17:00 +14°C° 0 mm 3 mps 769 mmHg 53%
    18:00 +14°C° 0 mm 3 mps 769 mmHg 56%
    19:00 +13°C° 0 mm 3 mps 769 mmHg 58%
    20:00 +12°C° 0 mm 3 mps 770 mmHg 60%
    21:00 +13°C° 0 mm 2 mps 770 mmHg 62%
    22:00 +13°C° 0 mm 2 mps 770 mmHg 63%
    23:00 +12°C° 0 mm 2 mps 770 mmHg 64%
    Show more